Fourchu: Past 24 Hour Conditions

 

St.Paul Island

08:00 PM ADT 02 September 2014
This table is a summary of hourly weather conditions for the past 24 hours.
Date / Time
(ADT)
Wind(knots) Conditions Visibility(km) Pressure(kPa) Air tempC) Relative humidity(%) Dew pointC)
02 September 2014
20:00 SSE 20 gust 25 N/A N/A 101.3 17 100 17
19:00 SSE 20 N/A N/A 101.3 17 100 17
18:00 SSE 14 gust 20 N/A N/A 101.4 17 99 17
17:00 SE 22 N/A N/A 101.4 17 99 17
16:00 SE 16 N/A N/A 101.5 17 99 17
15:00 SSE 19 N/A N/A 101.5 17 99 17
14:00 SE 15 gust 20 N/A N/A 101.5 17 98 16
13:00 SSE 12 gust 19 N/A N/A 101.6 17 97 17
12:00 SE 15 N/A N/A 101.6 17 95 17
11:00 SSE 12 gust 17 N/A N/A 101.5 17 99 17
10:00 SSE 15 N/A N/A 101.6 17 100 17
9:00 SSE 12 N/A N/A 101.6 16 100 16
8:00 SSE 11 N/A N/A 101.6 16 99 16
7:00 SSE 17 N/A N/A 101.6 16 99 16
6:00 SSE 10 N/A N/A 101.6 16 98 16
5:00 SSE 7 N/A N/A 101.6 16 98 16
4:00 SE 6 N/A N/A 101.6 16 96 16
3:00 E 4 N/A N/A 101.5 16 91 15
2:00 NNE 2 N/A N/A 101.5 16 89 14
1:00 NE 10 N/A N/A 101.5 17 88 15
0:00 NE 10 N/A N/A 101.5 16 87 14
01 September 2014
23:00 NE 11 N/A N/A 101.5 16 91 15
22:00 NE 11 N/A N/A 101.5 16 98 16
21:00 NNE 7 N/A N/A 101.5 16 99 16
20:00 NNE 11 N/A N/A 101.5 15 98 15
 
Map of Atlantic - Newfoundland marine weather areas Southwestern Grand Banks - 44138 Banquereau - 44139 Tail of the Bank - 44140 Nickerson Bank - 44251 Northeast Burgeo Bank - 44255 Blanc-Sablon Airport Cap Whittle Chevery Natashquan Airport Heath Point Miscou Island Grand Étang Ingonish Beach North Mountain St.Paul Island J.A. Douglas McCurdy Sydney Airport Charlottetown Airport East Point North Cape Argentia Bonavista Burgeo Cape Race Corner Brook Daniel's Harbour Englee Ferolle Point La Scie Port aux Basques Rocky Harbour Sagona Island St. Anthony Airport St. John's Int'l Airport St. Lawrence Stephenville Airport Twillingate Winterland Wreckhouse Cartwright Airport Mary's Harbour Grates Cove Pool's Island Marticot Island Long Pond Îles de la Madeleine Airport
Legend: buoyBuoy land stationLand Station